Terug naar catalogus

KINEIS-4E

ActiefCommunicatieSSO
NORAD 63300·PAYLOAD·🇫🇷 France

Gelanceerd Mar 18, 2025 vanaf Rocket Lab Launch Complex 1

Loading…

Volgende Passages (komende 24 uur)

TLE

VersSource: Space-Track

Epoch: Sep 14, 2026, 14:50 UTC

1 63300U 25056A   26257.61815380  .00001137  00000-0  18749-3 0  9998
2 63300  97.9137  19.0830 0001096 178.0218 182.0994 14.72307529 80285

Volg KINEIS-4E in realtime met AllMySat

Download on the App Store